Snowfall_Accumulation
0.0 0.0 0.0 0.0 0.0 0.0 0.0 0.0 0.0 0.0 0.0 0.0 0.0 0.0 0.0 0.0 0.0 0.0 0.0 0.0 0.0 0.0 0.0 0.0 0.0 0.0 0.0 0.0 0.0 0.0 0.0 0.0
0.0 0.0 0.0 0.0 0.0 0.0 0.0 0.0 0.0 0.0 0.0 0.0 0.0 0.0 0.0 0.0 0.0 0.0 0.0 0.0 0.0 0.0 0.0 0.0 0.0 0.0 0.0 0.0 0.0 0.0 0.0 0.0
0.0 0.0 0.0 0.0 0.0 0.0 0.0 0.0 0.0 0.0 0.0 0.0 0.0 0.0 0.0 0.0 0.0 0.0 0.0 0.0 0.0 0.0 0.0 0.0 0.0 0.0 0.0 0.0 0.0 0.0 0.0 0.0
0.0 0.0 0.0 0.0 0.0 0.0 0.0 0.0 0.0 0.0 0.0 0.0 0.0 0.0 0.0 0.0 0.0 0.0 0.0 0.0 0.0 0.0 0.0 0.0 0.0 0.0 0.0 0.0 0.0 0.0 0.0 0.0
0.0 0.0 0.0 0.0 0.0 0.0 0.0 0.0 0.0 0.0 0.0 0.0 0.0 0.0 0.0 0.0 0.0 0.0 0.0 0.0 0.0 0.0 0.0 0.0 0.0 0.0 0.0 0.0 0.0 0.0 0.0 0.0
0.0 0.0 0.0 0.0 0.0 0.0 0.0 0.0 0.0 0.0 0.0 0.0 0.0 0.0 0.0 0.0 0.0 0.0 0.0 0.0 0.0 0.0 0.0 0.0 0.0 0.0 0.0 0.0 0.0 0.0 0.0 0.0
0.0 0.0 0.0 0.0 0.0 0.0 0.0 0.0 0.0 0.0 0.0 0.0 0.0 0.0 0.0 0.0 0.0 0.0 0.0 0.0 0.0 0.0 0.0 0.0 0.0 0.0 0.0 0.0 0.0 0.0 0.0 0.0
0.0 0.1 0.1 0.0 0.0 0.0 0.0 0.0 0.0 0.0 0.0 0.0 0.0 0.0 0.0 0.0 0.0 0.0 0.0 0.0 0.0 0.0 0.0 0.0 0.0 0.0 0.0 0.0 0.0 0.0 0.0 0.0
0.2 1.3 0.5 0.2 0.2 0.2 0.1 0.1 0.1 0.0 0.0 0.0 0.0 0.0 0.0 0.0 0.0 0.0 0.0 0.0 0.0 0.0 0.0 0.0 0.0 0.0 0.0 0.0 0.0 0.0 0.0 0.0
1.5 1.1 0.6 0.4 1.2 2.2 0.7 0.4 0.1 0.1 0.0 0.0 0.0 0.0 0.0 0.0 0.0 0.0 0.0 0.0 0.0 0.0 0.0 0.0 0.0 0.0 0.0 0.0 0.0 0.0 0.0 0.0
1.0 1.9 0.7 0.5 3.0 1.8 0.4 0.2 0.3 0.2 0.1 0.1 0.0 0.0 0.0 0.1 0.0 0.0 0.0 0.0 0.0 0.0 0.0 0.0 0.0 0.0 0.0 0.0 0.0 0.0 0.0 0.0
1.5 2.7 1.7 0.9 1.3 2.6 1.9 0.7 1.2 1.0 0.3 0.2 0.1 0.2 0.2 0.1 0.1 0.2 0.1 0.0 0.0 0.0 0.0 0.0 0.0 0.0 0.0 0.0 0.0 0.0 0.0 0.0
3.1 2.0 2.9 1.9 1.4 1.2 2.7 1.7 3.0 2.2 1.2 0.9 0.5 0.4 0.3 0.2 0.2 0.2 0.2 0.1 0.0 0.0 0.0 0.0 0.0 0.0 0.0 0.0 0.0 0.0 0.0 0.0
3.3 2.9 2.6 2.9 1.6 2.6 2.3 2.5 1.5 1.4 2.9 2.8 1.1 1.4 1.0 1.7 1.6 0.6 0.5 0.4 0.3 0.1 0.0 0.0 0.0 0.0 0.0 0.0 0.0 0.0 0.0 0.0
3.3 4.2 3.3 2.2 1.9 1.8 1.0 1.0 1.3 1.6 1.3 2.9 2.8 2.9 4.7 3.3 2.6 2.4 2.3 1.0 1.3 0.5 0.3 0.2 0.2 0.1 0.0 0.0 0.0 0.0 0.0 0.0
1.1 2.3 2.9 2.2 1.1 0.8 0.3 0.1 0.0 0.1 0.3 0.4 1.5 3.8 3.0 2.8 3.6 4.1 3.7 3.1 2.7 1.6 1.3 1.3 0.9 1.2 1.1 0.6 0.5 0.9 0.9 0.4
0.0 0.1 0.2 1.0 0.2 0.1 0.0 0.0 0.0 0.0 0.0 0.0 0.0 0.0 0.1 1.5 1.2 1.5 1.1 2.5 3.7 2.1 2.9 1.6 1.9 0.9 nan nan 1.9 2.7 2.7 3.2
0.4 1.0 0.5 0.3 0.1 0.0 0.1 0.1 0.0 0.0 0.0 0.0 0.0 0.0 0.0 0.0 0.2 0.1 1.0 0.7 0.8 1.2 1.1 1.2 1.0 1.3 nan nan nan 2.8 3.6 3.9
0.2 1.4 1.1 0.4 0.1 0.1 0.1 0.0 0.0 0.1 0.1 0.0 0.0 0.0 0.0 0.0 0.0 0.0 0.1 0.1 0.3 0.2 0.3 0.2 0.2 0.1 nan nan nan 0.0 0.2 0.3
Water_Equivalent
0.00 0.00 0.00 0.00 0.00 0.00 0.00 0.00 0.00 0.00 0.00 0.00 0.00 0.00 0.00 0.00 0.00 0.00 0.00 0.00 0.00 0.00 0.00 0.00 0.00 0.00 0.00 0.00 0.00 0.00 0.00 0.00
0.00 0.00 0.00 0.00 0.00 0.00 0.00 0.00 0.00 0.00 0.00 0.00 0.00 0.00 0.00 0.00 0.00 0.00 0.00 0.00 0.00 0.00 0.00 0.00 0.00 0.00 0.00 0.00 0.00 0.00 0.00 0.00
0.00 0.00 0.00 0.00 0.00 0.00 0.00 0.00 0.00 0.00 0.00 0.00 0.00 0.00 0.00 0.00 0.00 0.00 0.00 0.00 0.00 0.00 0.00 0.00 0.00 0.00 0.00 0.00 0.00 0.00 0.00 0.00
0.00 0.00 0.00 0.00 0.00 0.00 0.00 0.00 0.00 0.00 0.00 0.00 0.00 0.00 0.00 0.00 0.00 0.00 0.00 0.00 0.00 0.00 0.00 0.00 0.00 0.00 0.00 0.00 0.00 0.00 0.00 0.00
0.00 0.00 0.00 0.00 0.00 0.00 0.00 0.00 0.00 0.00 0.00 0.00 0.00 0.00 0.00 0.00 0.00 0.00 0.00 0.00 0.00 0.00 0.00 0.00 0.00 0.00 0.00 0.00 0.00 0.00 0.00 0.00
0.00 0.00 0.00 0.00 0.00 0.00 0.00 0.00 0.00 0.00 0.00 0.00 0.00 0.00 0.00 0.00 0.00 0.00 0.00 0.00 0.00 0.00 0.00 0.00 0.00 0.00 0.00 0.00 0.00 0.00 0.00 0.00
0.00 0.00 0.00 0.00 0.00 0.00 0.00 0.00 0.00 0.00 0.00 0.00 0.00 0.00 0.00 0.00 0.00 0.00 0.00 0.00 0.00 0.00 0.00 0.00 0.00 0.00 0.00 0.00 0.00 0.00 0.00 0.00
0.01 0.01 0.02 0.01 0.00 0.00 0.00 0.00 0.00 0.00 0.00 0.00 0.00 0.00 0.00 0.00 0.00 0.00 0.00 0.00 0.00 0.00 0.00 0.00 0.00 0.00 0.00 0.00 0.00 0.00 0.00 0.00
0.05 0.42 0.11 0.05 0.04 0.04 0.03 0.02 0.01 0.00 0.00 0.00 0.00 0.00 0.00 0.00 0.00 0.00 0.00 0.00 0.00 0.00 0.00 0.00 0.00 0.00 0.00 0.00 0.00 0.00 0.00 0.00
0.35 0.24 0.12 0.09 0.36 0.84 0.15 0.07 0.01 0.01 0.01 0.00 0.00 0.00 0.00 0.00 0.00 0.00 0.00 0.00 0.00 0.00 0.00 0.00 0.00 0.00 0.00 0.00 0.00 0.00 0.00 0.00
0.21 0.52 0.16 0.13 1.15 0.66 0.10 0.05 0.06 0.04 0.01 0.01 0.00 0.01 0.01 0.01 0.00 0.00 0.00 0.00 0.00 0.00 0.00 0.00 0.00 0.00 0.00 0.00 0.00 0.00 0.00 0.00
0.31 0.77 0.35 0.22 0.46 1.03 0.74 0.20 0.34 0.29 0.06 0.04 0.02 0.04 0.03 0.02 0.02 0.04 0.02 0.00 0.00 0.00 0.00 0.00 0.00 0.00 0.00 0.00 0.00 0.00 0.00 0.00
0.65 0.40 0.80 0.50 0.28 0.27 0.96 0.60 1.01 0.68 0.37 0.28 0.10 0.09 0.08 0.06 0.06 0.05 0.07 0.04 0.01 0.00 0.00 0.00 0.00 0.00 0.00 0.00 0.00 0.00 0.00 0.00
0.79 0.66 0.45 0.69 0.31 0.82 0.72 0.66 0.36 0.42 1.10 0.96 0.32 0.38 0.23 0.40 0.42 0.20 0.14 0.15 0.10 0.02 0.01 0.00 0.00 0.00 0.00 0.00 0.00 0.00 0.00 0.00
0.59 0.67 0.58 0.36 0.32 0.41 0.22 0.19 0.29 0.40 0.34 1.06 0.96 0.87 1.54 0.81 0.67 0.61 0.67 0.27 0.35 0.15 0.07 0.06 0.04 0.02 0.00 0.00 0.00 0.00 0.00 0.00
0.18 0.34 0.43 0.36 0.18 0.15 0.06 0.02 0.00 0.01 0.06 0.07 0.34 1.46 0.99 0.92 1.25 1.22 1.04 0.82 0.76 0.50 0.31 0.27 0.18 0.31 0.29 0.14 0.09 0.20 0.18 0.09
0.01 0.03 0.03 0.17 0.04 0.03 0.00 0.00 0.00 0.00 0.00 0.00 0.00 0.00 0.02 0.37 0.28 0.34 0.20 0.47 0.93 0.46 0.85 0.30 0.32 0.20 nan nan 0.45 0.64 0.61 0.65
0.12 0.29 0.14 0.07 0.03 0.01 0.03 0.02 0.00 0.00 0.00 0.00 0.00 0.00 0.00 0.00 0.03 0.01 0.12 0.14 0.16 0.21 0.24 0.24 0.18 0.26 nan nan nan 0.61 0.78 0.82
0.06 0.47 0.37 0.13 0.04 0.03 0.02 0.02 0.01 0.02 0.03 0.00 0.00 0.00 0.00 0.00 0.00 0.01 0.03 0.03 0.06 0.05 0.05 0.04 0.03 0.03 nan nan nan 0.01 0.03 0.07
SL_Ratio
nan nan nan nan nan nan nan nan nan nan nan nan nan nan nan nan nan nan nan nan nan nan nan nan nan nan nan nan nan nan nan nan
nan nan nan nan nan nan nan nan nan nan nan nan nan nan nan nan nan nan nan nan nan nan nan nan nan nan nan nan nan nan nan nan
nan nan nan nan nan nan nan nan nan nan nan nan nan nan nan nan nan nan nan nan nan nan nan nan nan nan nan nan nan nan nan nan
nan nan nan nan nan nan nan nan nan nan nan nan nan nan nan nan nan nan nan nan nan nan nan nan nan nan nan nan nan nan nan nan
nan nan nan nan nan nan nan nan nan nan nan nan nan nan nan nan nan nan nan nan nan nan nan nan nan nan nan nan nan nan nan nan
nan nan nan nan nan nan nan nan nan nan nan nan nan nan nan nan nan nan nan nan nan nan nan nan nan nan nan nan nan nan nan nan
nan nan nan nan nan nan nan nan nan nan nan nan nan nan nan nan nan nan nan nan nan nan nan nan nan nan nan nan nan nan nan nan
3.5 4.3 4.7 3.9 3.3 nan nan nan nan nan nan nan nan nan nan nan nan nan nan nan nan nan nan nan nan nan nan nan nan nan nan nan
4.5 3.1 4.5 4.6 4.7 4.4 4.6 5.2 5.5 6.7 nan nan nan nan nan nan nan nan nan nan nan nan nan nan nan nan nan nan nan nan nan nan
4.3 4.4 4.7 4.2 3.3 2.6 4.8 5.3 5.4 5.3 5.3 nan 0.0 nan 10.0 nan nan nan nan nan nan nan nan nan nan nan nan nan nan nan nan nan
4.5 3.6 4.1 4.1 2.6 2.7 3.7 4.2 4.6 5.0 5.5 5.7 5.4 5.8 5.7 5.9 5.7 0.0 5.0 nan nan nan nan nan nan nan nan nan nan nan nan nan
4.8 3.5 4.8 4.3 2.9 2.6 2.6 3.5 3.4 3.3 4.9 5.3 5.5 5.3 5.9 5.8 5.6 4.9 5.1 4.0 5.0 nan nan nan nan nan nan nan nan nan nan nan
4.8 5.1 3.6 3.9 4.8 4.6 2.8 2.9 3.0 3.3 3.1 3.2 5.2 4.8 4.5 3.9 4.2 3.4 3.4 2.6 2.8 3.3 nan nan nan nan nan nan nan nan nan nan
4.2 4.4 5.8 4.2 5.2 3.2 3.2 3.7 4.1 3.4 2.6 2.9 3.4 3.8 4.3 4.2 3.7 3.0 3.3 2.9 2.9 3.1 3.8 3.3 nan nan nan nan nan nan nan nan
5.6 6.3 5.7 6.2 6.0 4.5 4.8 5.2 4.5 4.1 3.9 2.7 3.0 3.3 3.0 4.1 3.9 3.9 3.4 3.8 3.6 3.4 4.3 4.3 4.1 4.5 5.0 nan nan 5.0 4.0 3.3
6.4 6.8 6.7 6.2 5.9 5.7 4.9 4.6 5.0 5.0 4.6 5.5 4.4 2.6 3.0 3.1 2.9 3.3 3.5 3.8 3.5 3.2 4.0 4.6 4.9 4.0 3.9 4.4 5.0 4.6 4.9 4.3
4.1 4.3 5.4 6.0 5.1 5.0 nan nan nan nan nan 5.0 nan 5.0 4.3 4.1 4.2 4.5 5.8 5.4 4.0 4.6 3.4 5.2 6.0 4.3 nan nan 4.1 4.2 4.4 5.0
3.4 3.4 3.5 4.3 3.6 3.4 3.7 3.5 nan nan nan nan nan 0.0 nan 10.0 7.8 7.3 7.8 5.5 4.9 5.5 4.6 4.9 5.5 5.1 nan nan nan 4.6 4.6 4.8
3.5 2.9 2.9 3.2 2.7 2.5 2.5 3.1 3.4 3.3 3.4 nan nan nan 8.2 nan 10.0 3.9 4.1 3.9 4.2 4.8 5.8 6.3 6.3 5.1 nan nan nan 4.3 5.3 4.8